#timestamp,LO_Frequency,Hit,StdDev 
1606010415.4,286046998.5,Y
1606010435.2,286047000.0,P
1606010455.1,286047000.4,N
1606010456.0,286047000.4,N
1606010475.8,286047000.8,N
1606010495.6,286047000.8,N
1606010515.5,286046998.2,N
1606010535.3,286046998.9,N
1606010555.1,286046998.6,N
1606010575.9,286046998.3,N
1606010595.7,286046999.4,N
1606010615.5,286047001.0,N
1606010635.3,286046998.8,N
1606010655.2,286046998.3,N
1606010675.0,286046998.7,N
1606010675.9,286046998.7,N
1606010695.7,286046998.8,N
1606010715.6,286046998.5,N
1606010735.4,286046998.8,N
1606010755.2,286046998.1,N
1606010775.1,286046998.8,N
1606010776.0,286046998.8,N
1606010795.8,286046999.1,N
1606010815.6,286046996.9,Y
1606010835.5,286046998.9,P
1606010855.3,286046998.5,P
1606010875.1,286046998.5,P
1606010895.9,286047001.0,Y
1606010915.7,286047000.1,P
1606010935.5,286047002.8,P
1606010955.4,286047000.2,N
1606010975.2,286047002.7,N
1606010995.0,286047002.5,N
1606010995.9,286047002.5,N
1606011015.8,286046999.7,N
1606011035.6,286047000.2,N
1606011055.4,286046999.8,N
1606011075.3,286047002.8,N
1606011095.1,286047000.2,N
1606011115.8,286046999.7,N
1606011135.7,286047000.6,N
1606011155.5,286046999.9,N
1606011175.3,286047002.1,N
1606011195.2,286047000.1,N
1606011215.0,286047001.5,N
1606011215.9,286047001.5,N
1606011235.7,286047002.1,N
1606011255.6,286047000.5,N
1606011275.4,286047001.6,N
1606011295.2,286047001.4,N
1606011315.1,286047002.1,N
1606011316.0,286047002.1,N
1606011335.8,286047002.4,N
1606011355.6,286047002.7,N
1606011375.5,286047001.9,N
1606011395.3,286047002.2,N
1606011415.1,286047002.3,N
1606011435.9,286047002.7,N
1606011455.7,286047002.1,N
1606011475.5,286047002.7,N
1606011495.4,286047002.5,N
1606011515.2,286047001.9,N
1606011535.0,286047001.5,N
1606011535.9,286047001.5,N
1606011555.8,286047004.3,Y
1606011575.6,286047002.6,P
1606011595.4,286047001.5,N
1606011615.3,286047001.7,P
1606011635.1,286047004.3,Y
1606011655.8,286047002.7,P
1606011675.7,286047002.4,P
1606011695.5,286047002.7,P
1606011715.3,286047000.7,N
1606011735.2,286047002.5,Y
1606011755.0,286047000.8,P
1606011755.9,286047000.8,N
1606011775.7,286046998.3,N
1606011795.6,286047000.6,N
1606011815.4,286047000.5,N
1606011835.2,286047002.7,N
1606011855.1,286047000.1,N
1606011856.0,286047000.1,N
1606011875.8,286047000.2,N
1606011895.6,286046999.7,N
1606011915.5,286046999.9,N
1606011935.3,286047002.3,N
1606011955.1,286046999.7,N
1606011975.9,286047000.0,N
1606011995.7,286047000.4,N
1606012015.5,286047000.4,N
1606012035.4,286047000.3,N
1606012055.2,286046999.8,N
1606012075.0,286047002.0,N
1606012075.9,286047002.0,N
1606012095.8,286047000.0,N
1606012115.6,286046999.8,N
1606012135.4,286046999.8,N
1606012155.3,286047002.8,N
1606012175.1,286047002.0,N
1606012176.0,286047002.0,N
1606012195.8,286047002.1,N
1606012215.7,286047002.2,N
1606012235.5,286047001.5,N
1606012255.3,286047004.4,Y
1606012275.2,286047004.4,P
1606012295.9,286047002.4,N
1606012315.7,286047001.6,N
1606012335.6,286047002.0,N
1606012355.4,286047001.4,N
1606012375.2,286047001.5,N
1606012395.1,286047001.9,N
1606012396.0,286047001.9,N
1606012415.8,286047002.0,N
1606012435.6,286047001.5,N
1606012455.5,286047001.8,N
1606012475.3,286047002.6,Y
1606012495.1,286047000.6,P
1606012515.9,286047000.2,N
1606012535.7,286047002.0,N
1606012555.5,286047000.6,N
1606012575.4,286047000.9,N
1606012595.2,286047001.2,N
1606012615.0,286046998.5,N
1606012615.9,286046998.5,N
1606012635.8,286046998.7,N
1606012655.6,286047000.0,N
1606012675.4,286047002.4,N
1606012695.3,286047001.1,N
1606012715.1,286047000.7,N
1606012716.0,286047000.7,N
1606012735.8,286047000.8,N
1606012755.7,286047000.4,N
1606012775.5,286047000.4,N
1606012795.3,286047000.8,N
1606012815.2,286047001.0,N
1606012835.9,286046999.9,N
1606012855.7,286047000.6,N
1606012875.6,286047002.8,N
1606012895.4,286047002.5,N
1606012915.2,286047002.1,N
1606012935.0,286047002.3,N
1606012936.0,286047002.3,N
1606012955.8,286047002.3,N
1606012975.6,286047002.0,N
1606012995.4,286047002.6,N
1606013015.3,286047002.1,N
1606013035.1,286047001.7,N
1606013055.8,286047001.7,N
1606013075.7,286047002.0,N
1606013095.5,286047001.9,N
1606013115.3,286047001.7,N
1606013135.2,286047000.0,N
1606013155.0,286046999.8,N
1606013155.9,286046999.8,N
1606013175.7,286047002.7,N
1606013195.6,286047000.2,N
1606013215.4,286047000.2,N
1606013235.2,286046998.4,N
1606013255.1,286047001.1,N
1606013256.0,286047001.1,N
1606013275.8,286046999.9,N
1606013295.6,286047000.9,N
1606013315.5,286047001.0,N
1606013335.3,286047001.0,N
1606013355.1,286047000.5,N
1606013375.9,286047001.0,N
1606013395.7,286046998.2,N
1606013415.5,286046998.6,N
1606013435.4,286047000.3,N
1606013455.2,286047000.9,N
1606013475.0,286047000.8,N
1606013475.9,286047000.8,N
1606013495.8,286047000.5,N
1606013515.6,286046999.7,N
1606013535.4,286047000.2,N
1606013555.3,286047000.4,N
1606013575.1,286047000.4,N
1606013576.0,286047000.4,N
1606013595.8,286047000.3,N
1606013615.7,286047000.4,N
1606013635.5,286047000.9,N
1606013655.3,286046998.6,N
1606013675.2,286046998.1,N
1606013695.9,286047001.2,N
1606013715.7,286047000.7,N
1606013735.6,286047001.1,N
1606013755.4,286046998.1,N
1606013775.2,286046999.3,N
1606013795.1,286046999.4,N
1606013796.0,286046999.4,N
1606013815.8,286047001.2,N
1606013835.6,286046999.0,N
1606013855.5,286046999.1,N
1606013875.3,286046999.4,N
1606013895.1,286046996.9,Y
1606013915.9,286046999.6,P
1606013935.7,286046996.5,P
1606013955.5,286046998.6,N
1606013975.4,286046999.4,N
1606013995.2,286046999.5,N
